CW3359 Weather Reports


time (UTC)temp
C
wind
direction
speed
KPH
gust
KPH
rain 1hr
cm
rain 24hr
cm
rain mn
cm
humidity
%
barometer
mb
20260502180907 23 230 0.0 0.0 0.00 0.00 0.00 47 1013.9
20260502170349 25 230 1.6 14.5 0.00 0.00 0.00 38 1014.1
20260502163907 25 183 3.2 9.7 0.00 0.00 0.00 38 1014.1
20260502163352 25 202 3.2 14.5 0.00 0.00 0.00 39 1014.2
20260502161907 25 231 4.8 11.3 0.00 0.00 0.00 39 1014.4
20260502160906 25 248 9.7 16.1 0.00 0.00 0.00 38 1014.5
20260502160349 25 264 4.8 17.7 0.00 0.00 0.00 38 1014.7
20260502151905 26 234 6.4 16.1 0.00 0.00 0.00 38 1015.1
20260502151343 26 231 6.4 17.7 0.00 0.00 0.00 37 1015.2
20260502150358 25 259 4.8 17.7 0.00 0.00 0.00 39 1015.4
20260502122901 25 157 3.2 16.1 0.00 0.00 0.00 35 1017.6
20260502121901 25 207 0.0 9.7 0.00 0.00 0.00 37 1017.6
20260502120901 24 173 6.4 14.5 0.00 0.00 0.00 37 1017.8
20260502120343 24 128 3.2 17.7 0.00 0.00 0.00 36 1017.9
20260502114905 24 107 4.8 17.7 0.00 0.00 0.00 36 1018.1
20260502113903 24 159 6.4 16.1 0.00 0.00 0.00 35 1018.2
20260502112903 25 86 6.4 14.5 0.00 0.00 0.00 34 1018.2
20260502111902 24 102 0.0 6.4 0.00 0.00 0.00 36 1018.5
20260502110901 23 107 0.0 11.3 0.00 0.00 0.00 37 1018.5
20260502105859 24 102 0.0 3.2 0.00 0.00 0.00 37 1018.5
20260502104859 22 109 0.0 4.8 0.00 0.00 0.00 39 1018.7
20260502103859 23 110 3.2 14.5 0.00 0.00 0.00 35 1018.9
20260502102858 23 73 0.0 6.4 0.00 0.00 0.00 37 1019.0
20260502101858 22 72 0.0 4.8 0.00 0.00 0.00 38 1019.2
20260502100858 21 73 0.0 9.7 0.00 0.00 0.00 37 1019.3
20260502090859 19 100 0.0 4.8 0.00 0.00 0.00 45 1020.1
20260502071333 11 104 0.0 0.0 0.00 0.00 0.00 68 1021.0
20260502065854 10 104 0.0 0.0 0.00 0.00 0.00 69 1021.1
20260502064853 9 104 0.0 0.0 0.00 0.00 0.00 72 1021.2
20260502064338 8 104 0.0 0.0 0.00 0.00 0.00 75 1021.3
20260502063342 7 104 0.0 0.0 0.00 0.00 0.00 78 1021.3
20260502061852 7 104 0.0 0.0 0.00 0.00 0.00 79 1021.4
20260502060855 6 104 0.0 0.0 0.00 0.00 0.00 81 1021.3
20260502055854 6 104 0.0 0.0 0.00 0.00 0.00 81 1021.4
20260502054852 5 104 0.0 0.0 0.00 0.00 0.00 82 1021.4
20260502054805 5 104 0.0 0.0 0.00 0.00 0.00 83 1021.3
20260502053337 5 104 0.0 0.0 0.00 0.00 0.00 83 1021.4
20260502052327 5 104 0.0 0.0 0.00 0.00 0.00 84 1021.3
20260502050851 4 104 0.0 0.0 0.00 0.00 0.00 84 1021.3
20260502045851 4 104 0.0 0.0 0.00 0.00 0.00 84 1021.3
20260502045328 3 104 0.0 0.0 0.00 0.00 0.00 84 1021.3
20260502043850 3 104 0.0 0.0 0.00 0.00 0.00 84 1021.2
20260502042851 3 104 0.0 0.0 0.00 0.00 0.00 83 1021.2
20260502041850 4 104 0.0 0.0 0.00 0.00 0.00 83 1021.2
20260502041823 4 104 0.0 0.0 0.00 0.00 0.00 83 1021.3
20260502035853 4 104 0.0 0.0 0.00 0.00 0.00 84 1021.2
20260502034852 4 104 0.0 0.0 0.00 0.00 0.00 83 1021.2
20260502033849 4 104 0.0 0.0 0.00 0.00 0.00 83 1021.4
20260502032849 4 104 0.0 0.0 0.00 0.00 0.00 83 1021.2
20260502031848 4 104 0.0 0.0 0.00 0.00 0.00 82 1021.3
20260502030850 4 104 0.0 0.0 0.00 0.00 0.00 83 1021.4
20260502025848 4 104 0.0 0.0 0.00 0.00 0.00 83 1021.3
20260502025330 4 104 0.0 0.0 0.00 0.00 0.00 82 1021.3
20260502023848 5 104 0.0 0.0 0.00 0.00 0.00 81 1021.3
20260502022852 5 104 0.0 0.0 0.00 0.00 0.00 80 1021.3
20260502022332 5 104 0.0 0.0 0.00 0.00 0.00 80 1021.3
20260502020851 5 104 0.0 0.0 0.00 0.00 0.00 79 1021.3
20260502015851 5 104 0.0 0.0 0.00 0.00 0.00 79 1021.3
20260502014846 5 104 0.0 0.0 0.00 0.00 0.00 79 1021.3
20260502014329 6 104 0.0 0.0 0.00 0.00 0.00 79 1021.3
20260502012850 6 104 0.0 0.0 0.00 0.00 0.00 78 1021.3
20260502011849 6 104 0.0 0.0 0.00 0.00 0.00 78 1021.4
20260502010848 6 104 0.0 0.0 0.00 0.00 0.00 76 1021.4
20260502005848 6 104 0.0 0.0 0.00 0.00 0.00 76 1021.4
20260502004849 7 104 0.0 0.0 0.00 0.00 0.00 75 1021.6
20260502003848 7 104 0.0 0.0 0.00 0.00 0.00 76 1021.7
20260502002848 6 104 0.0 0.0 0.00 0.00 0.00 76 1021.7
20260502001848 6 104 0.0 0.0 0.00 0.00 0.00 76 1021.7
20260502001321 6 104 0.0 0.0 0.00 0.00 0.00 76 1021.7
20260502000326 7 104 0.0 0.0 0.00 0.00 0.00 75 1021.8
20260501234844 7 104 0.0 0.0 0.00 0.00 0.00 74 1021.8
20260501233844 7 104 0.0 0.0 0.00 0.00 0.00 73 1021.9
20260501232843 8 104 0.0 0.0 0.00 0.00 0.00 72 1021.9
20260501231844 8 104 0.0 0.0 0.00 0.00 0.00 72 1021.9
20260501230843 8 104 0.0 0.0 0.00 0.00 0.00 71 1021.9
20260501225843 8 104 0.0 0.0 0.00 0.00 0.00 70 1022.1
20260501225317 8 104 0.0 0.0 0.00 0.00 0.00 70 1022.0
20260501224323 8 104 0.0 0.0 0.00 0.00 0.00 69 1022.0
20260501223310 9 104 0.0 0.0 0.00 0.00 0.00 69 1022.0
20260501223038 8 104 0.0 0.0 0.00 0.00 0.00 69 1022.0
20260501221320 9 104 0.0 0.0 0.00 0.00 0.00 67 1022.0
20260501220320 10 104 0.0 0.0 0.00 0.00 0.00 66 1021.9
20260501214844 10 104 0.0 0.0 0.00 0.00 0.00 66 1021.9
20260501213844 10 104 0.0 0.0 0.00 0.00 0.00 64 1022.0
20260501212845 10 104 0.0 0.0 0.00 0.00 0.00 63 1022.0
20260501211841 11 104 0.0 0.0 0.00 0.00 0.00 62 1021.9
20260501211324 11 104 0.0 0.0 0.00 0.00 0.00 61 1021.8
20260501205840 11 104 0.0 0.0 0.00 0.00 0.00 61 1021.8
20260501204839 12 104 0.0 0.0 0.00 0.00 0.00 59 1021.9
20260501203840 12 104 0.0 0.0 0.00 0.00 0.00 58 1021.8
20260501202842 12 104 0.0 0.0 0.00 0.00 0.00 59 1021.8
20260501201842 12 104 0.0 0.0 0.00 0.00 0.00 57 1021.8
20260501200842 13 104 0.0 0.0 0.00 0.00 0.00 57 1021.8
20260501195839 13 104 0.0 0.0 0.00 0.00 0.00 55 1021.7
20260501195755 14 104 0.0 0.0 0.00 0.00 0.00 52 1021.5
20260501193839 15 104 0.0 0.0 0.00 0.00 0.00 53 1021.6
20260501192838 15 104 0.0 0.0 0.00 0.00 0.00 51 1021.5
20260501191838 16 104 0.0 0.0 0.00 0.00 0.00 49 1021.5
20260501190838 17 104 0.0 0.0 0.00 0.00 0.00 46 1021.4
20260501185840 18 104 0.0 0.0 0.00 0.00 0.00 43 1021.4
20260501184841 19 104 0.0 0.0 0.00 0.00 0.00 39 1021.3
20260501183840 20 104 0.0 0.0 0.00 0.00 0.00 35 1021.2
20260501182840 21 104 0.0 0.0 0.00 0.00 0.00 32 1021.3
20260501182813 21 104 0.0 0.0 0.00 0.00 0.00 30 1021.2